Weather History for KDYT - October, 2019

Change the Weather History Date:

Tuesday, October 22, 2019

  Actual Average Record
Temperature  
Mean Temperature 44 °F -  
Max Temperature 48 °F 53 °F 75 °F (1967)
Min Temperature 39 °F 35 °F 22 °F (1965)
Degree Days  
Heating Degree Days 22    
Moisture  
Dew Point 39 °F    
Average Humidity 81    
Maximum Humidity 93    
Minimum Humidity 71    
Precipitation  
Precipitation 0.00 in - - ()
Sea Level Pressure  
Sea Level Pressure 29.30 in    
Wind  
Wind Speed 12 mph ()    
Max Wind Speed 26 mph    
Max Gust Speed 37 mph    
Visibility 9.3 miles    
Events Rain    
Averages and records for this station are not official NWS values.
T = Trace of Precipitation, MM = Missing Value Source: Averaged Metar Reports

Daily Weather History Graph

Daily Weather History Graph

Search for Another Location

Airport or City:

Astronomy

Oct. 22, 2019 Rise Set
Actual Time 7:35 AM CDT 6:09 PM CDT
Civil Twilight 7:04 AM CDT 6:39 PM CDT
Nautical Twilight 6:29 AM CDT 7:15 PM CDT
Astronomical Twilight 5:54 AM CDT 7:50 PM CDT
Moon 12:14 AM CDT (10/22) 3:47 PM CDT (10/22)
Length of Visible Light 11h 35m
Length of Day
10h 33m
Last Quarter, 37% of the Moon is Illuminated
Oct 22
Last Quarter
Oct 27
New
Nov 4
First Quarter
Nov 12
Full
Nov 19
Last Quarter

Hourly Weather History & Observations

Time (CDT) Temp. Windchill Dew Point Humidity Pressure Visibility Wind Dir Wind Speed Gust Speed Precip Events Conditions
12:15 AM 48.2 °F - 46.4 °F 93% 29.18 in 10.0 mi WNW 4.6 mph - N/A Rain Light Rain
12:16 AM 48.2 °F - 46.4 °F 93% 29.18 in 10.0 mi WNW 4.6 mph - N/A Rain Light Rain
12:35 AM 48.2 °F - 46.4 °F 93% 29.18 in 7.0 mi Calm Calm - N/A Rain Rain
12:55 AM 48.2 °F - 46.4 °F 93% 29.18 in 7.0 mi Calm Calm - N/A   Light Drizzle
12:56 AM 48.2 °F - 46.4 °F 93% 29.18 in 7.0 mi Calm Calm - N/A   Light Drizzle
1:15 AM 48.2 °F - 46.4 °F 93% 29.18 in 10.0 mi Calm Calm - N/A   Drizzle
1:35 AM 48.2 °F - 46.4 °F 93% 29.18 in 10.0 mi South 3.5 mph - N/A   Light Drizzle
1:36 AM 48.2 °F - 46.4 °F 93% 29.18 in 10.0 mi SSW 3.5 mph - N/A   Light Drizzle
1:55 AM 48.2 °F - 46.4 °F 93% 29.17 in 10.0 mi Calm Calm - N/A Rain Light Rain
2:15 AM 48.2 °F - 46.4 °F 93% 29.17 in 7.0 mi Calm Calm - N/A   Overcast
2:16 AM 48.2 °F - 46.4 °F 93% 29.17 in 7.0 mi Calm Calm - N/A   Overcast
2:35 AM 48.2 °F - 46.4 °F 93% 29.17 in 3.0 mi South 4.6 mph - N/A   Heavy Drizzle
2:55 AM 48.2 °F - 46.4 °F 93% 29.17 in 5.0 mi SSW 8.1 mph - N/A   Drizzle
2:56 AM 48.2 °F - 46.4 °F 93% 29.17 in 5.0 mi SSW 6.9 mph - N/A   Drizzle
3:15 AM 48.2 °F - 46.4 °F 93% 29.16 in 7.0 mi SSW 6.9 mph - N/A Rain Light Rain
3:35 AM 46.4 °F 43.5 °F 44.6 °F 93% 29.16 in 5.0 mi West 5.8 mph - N/A   Drizzle
3:55 AM 46.4 °F 41.1 °F 44.6 °F 93% 29.16 in 10.0 mi West 11.5 mph - N/A   Overcast
4:15 AM 46.4 °F 41.1 °F 42.8 °F 87% 29.16 in 10.0 mi West 11.5 mph - N/A   Overcast
4:16 AM 46.4 °F 41.5 °F 42.8 °F 87% 29.16 in 10.0 mi WNW 10.4 mph - N/A   Overcast
4:35 AM 46.4 °F 40.7 °F 42.8 °F 87% 29.16 in 5.0 mi West 12.7 mph 18.4 mph N/A   Drizzle
4:36 AM 46.4 °F 40.7 °F 42.8 °F 87% 29.16 in 5.0 mi West 12.7 mph - N/A   Drizzle
4:55 AM 44.6 °F 37.8 °F 41.0 °F 87% 29.17 in 10.0 mi WNW 15.0 mph - N/A   Light Drizzle
5:15 AM 44.6 °F 38.1 °F 41.0 °F 87% 29.17 in 10.0 mi West 13.8 mph 17.3 mph N/A   Overcast
5:35 AM 44.6 °F 37.4 °F 39.2 °F 81% 29.18 in 10.0 mi WNW 16.1 mph - N/A   Overcast
5:36 AM 44.6 °F 38.1 °F 39.2 °F 81% 29.18 in 10.0 mi West 13.8 mph - N/A   Overcast
5:55 AM 44.6 °F 38.1 °F 41.0 °F 87% 29.18 in 7.0 mi WNW 13.8 mph - N/A Rain Light Rain
5:56 AM 44.6 °F 38.8 °F 41.0 °F 87% 29.18 in 7.0 mi West 11.5 mph - N/A Rain Light Rain
6:15 AM 44.6 °F 38.8 °F 41.0 °F 87% 29.18 in 7.0 mi West 11.5 mph - N/A Rain Light Rain
6:35 AM 44.6 °F 40.2 °F 41.0 °F 87% 29.18 in 10.0 mi West 8.1 mph - N/A Rain Light Rain
6:55 AM 44.6 °F 40.2 °F 39.2 °F 81% 29.18 in 7.0 mi West 8.1 mph - N/A Rain Rain
7:15 AM 44.6 °F 38.4 °F 41.0 °F 87% 29.18 in 5.0 mi West 12.7 mph 19.6 mph N/A Rain Rain
7:35 AM 44.6 °F 39.2 °F 41.0 °F 87% 29.18 in 7.0 mi WNW 10.4 mph - N/A Rain Light Rain
7:55 AM 44.6 °F 38.8 °F 41.0 °F 87% 29.19 in 10.0 mi WNW 11.5 mph - N/A Rain Light Rain
7:56 AM 44.6 °F 38.8 °F 41.0 °F 87% 29.19 in 10.0 mi WNW 11.5 mph - N/A Rain Light Rain
8:15 AM 44.6 °F 38.1 °F 39.2 °F 81% 29.19 in 10.0 mi WNW 13.8 mph 23.0 mph N/A Rain Light Rain
8:16 AM 44.6 °F 37.8 °F 39.2 °F 81% 29.19 in 10.0 mi WNW 15.0 mph 23.0 mph N/A Rain Light Rain
8:35 AM 44.6 °F 37.4 °F 39.2 °F 81% 29.20 in 10.0 mi West 16.1 mph 23.0 mph N/A   Light Drizzle
8:55 AM 44.6 °F 38.1 °F 39.2 °F 81% 29.20 in 10.0 mi WNW 13.8 mph - N/A   Overcast
9:15 AM 44.6 °F 38.8 °F 39.2 °F 81% 29.21 in 10.0 mi West 11.5 mph - N/A Rain Light Rain
9:35 AM 44.6 °F 37.8 °F 39.2 °F 81% 29.22 in 10.0 mi West 15.0 mph 23.0 mph N/A   Overcast
9:55 AM 44.6 °F 38.1 °F 39.2 °F 81% 29.22 in 10.0 mi West 13.8 mph - N/A   Overcast
10:35 AM 46.4 °F 38.7 °F 39.2 °F 76% 29.22 in 10.0 mi WNW 20.7 mph 27.6 mph N/A   Overcast
10:36 AM 46.4 °F 38.7 °F 39.2 °F 76% 29.22 in 10.0 mi WNW 20.7 mph 27.6 mph N/A   Overcast
10:55 AM 46.4 °F 38.3 °F 39.2 °F 76% 29.23 in 10.0 mi West 23.0 mph - N/A   Overcast
10:56 AM 46.4 °F 38.3 °F 39.2 °F 76% 29.22 in 10.0 mi West 23.0 mph - N/A   Overcast
11:15 AM 46.4 °F 38.5 °F 39.2 °F 76% 29.23 in 10.0 mi West 21.9 mph 29.9 mph N/A   Overcast
11:16 AM 46.4 °F 38.7 °F 39.2 °F 76% 29.23 in 10.0 mi West 20.7 mph - N/A   Overcast
11:35 AM 44.6 °F 36.1 °F 39.2 °F 81% 29.24 in 10.0 mi West 21.9 mph - N/A   Overcast
12:15 PM 46.4 °F 38.5 °F 37.4 °F 71% 29.25 in 10.0 mi West 21.9 mph - N/A   Overcast
12:16 PM 46.4 °F 38.7 °F 37.4 °F 71% 29.26 in 10.0 mi West 20.7 mph - N/A   Overcast
12:35 PM 46.4 °F 38.3 °F 37.4 °F 71% 29.26 in 10.0 mi West 23.0 mph 29.9 mph N/A   Overcast
12:55 PM 44.6 °F 35.5 °F 37.4 °F 76% 29.27 in 10.0 mi WNW 25.3 mph 36.8 mph N/A   Overcast
12:56 PM 44.6 °F 36.1 °F 37.4 °F 76% 29.27 in 10.0 mi West 21.9 mph 36.8 mph N/A   Overcast
1:15 PM 44.6 °F 36.4 °F 37.4 °F 76% 29.28 in 10.0 mi West 20.7 mph 28.8 mph N/A   Overcast
1:35 PM 44.6 °F 36.1 °F 37.4 °F 76% 29.28 in 10.0 mi West 21.9 mph 28.8 mph N/A   Overcast
1:55 PM 44.6 °F 35.5 °F 37.4 °F 76% 29.29 in 10.0 mi West 25.3 mph 31.1 mph N/A   Overcast
1:56 PM 44.6 °F 35.9 °F 37.4 °F 76% 29.29 in 10.0 mi West 23.0 mph 31.1 mph N/A   Overcast
2:15 PM 44.6 °F 35.7 °F 37.4 °F 76% 29.29 in 10.0 mi West 24.2 mph 33.4 mph N/A   Overcast
2:16 PM 44.6 °F 35.5 °F 37.4 °F 76% 29.29 in 10.0 mi West 25.3 mph 33.4 mph N/A   Overcast
2:35 PM 44.6 °F 35.7 °F 37.4 °F 76% 29.30 in 10.0 mi West 24.2 mph 27.6 mph N/A   Overcast
2:36 PM 44.6 °F 35.5 °F 37.4 °F 76% 29.30 in 10.0 mi West 25.3 mph - N/A   Overcast
2:55 PM 44.6 °F 35.9 °F 37.4 °F 76% 29.32 in 10.0 mi West 23.0 mph 35.7 mph N/A   Overcast
3:15 PM 44.6 °F 35.5 °F 37.4 °F 76% 29.32 in 10.0 mi WNW 25.3 mph 35.7 mph N/A   Overcast
3:16 PM 44.6 °F 36.1 °F 37.4 °F 76% 29.33 in 10.0 mi West 21.9 mph 35.7 mph N/A   Overcast
3:35 PM 44.6 °F 35.9 °F 37.4 °F 76% 29.34 in 10.0 mi West 23.0 mph 32.2 mph N/A   Overcast
3:36 PM 44.6 °F 35.7 °F 37.4 °F 76% 29.33 in 10.0 mi West 24.2 mph 27.6 mph N/A   Overcast
3:55 PM 44.6 °F 35.3 °F 37.4 °F 76% 29.35 in 10.0 mi West 26.5 mph 33.4 mph N/A   Overcast
4:15 PM 44.6 °F 36.4 °F 37.4 °F 76% 29.36 in 10.0 mi West 20.7 mph 34.5 mph N/A   Overcast
4:35 PM 42.8 °F 33.1 °F 37.4 °F 81% 29.38 in 10.0 mi West 25.3 mph 29.9 mph N/A   Overcast
4:55 PM 42.8 °F 32.9 °F 37.4 °F 81% 29.39 in 7.0 mi West 26.5 mph 32.2 mph N/A   Light Drizzle
5:15 PM 42.8 °F 33.3 °F 37.4 °F 81% 29.40 in 10.0 mi West 24.2 mph 32.2 mph N/A   Light Drizzle
5:35 PM 42.8 °F 33.8 °F 35.6 °F 76% 29.41 in 10.0 mi West 21.9 mph 34.5 mph N/A   Overcast
5:55 PM 42.8 °F 34.3 °F 35.6 °F 76% 29.43 in 10.0 mi West 19.6 mph 29.9 mph N/A   Overcast
5:56 PM 42.8 °F 33.8 °F 35.6 °F 76% 29.42 in 10.0 mi West 21.9 mph 29.9 mph N/A   Overcast
6:15 PM 42.8 °F 34.0 °F 35.6 °F 76% 29.44 in 10.0 mi West 20.7 mph 29.9 mph N/A   Overcast
6:16 PM 42.8 °F 34.5 °F 35.6 °F 76% 29.44 in 10.0 mi West 18.4 mph 29.9 mph N/A   Overcast
6:35 PM 42.8 °F 34.5 °F 35.6 °F 76% 29.45 in 10.0 mi West 18.4 mph 27.6 mph N/A   Overcast
6:55 PM 42.8 °F 33.8 °F 35.6 °F 76% 29.45 in 10.0 mi West 21.9 mph 25.3 mph N/A   Overcast
6:56 PM 42.8 °F 34.0 °F 35.6 °F 76% 29.46 in 10.0 mi West 20.7 mph 25.3 mph N/A   Overcast
7:15 PM 42.8 °F 33.5 °F 35.6 °F 76% 29.46 in 10.0 mi West 23.0 mph 28.8 mph N/A   Overcast
7:35 PM 42.8 °F 34.3 °F 35.6 °F 76% 29.47 in 10.0 mi West 19.6 mph 25.3 mph N/A   Light Drizzle
7:36 PM 42.8 °F 34.5 °F 35.6 °F 76% 29.47 in 10.0 mi West 18.4 mph 25.3 mph N/A   Light Drizzle
7:55 PM 42.8 °F 34.8 °F 35.6 °F 76% 29.47 in 10.0 mi West 17.3 mph 24.2 mph N/A   Light Drizzle
8:15 PM 41.0 °F 31.4 °F 35.6 °F 81% 29.48 in 10.0 mi West 21.9 mph 27.6 mph N/A   Light Drizzle
8:35 PM 41.0 °F 31.4 °F 35.6 °F 81% 29.49 in 10.0 mi West 21.9 mph - N/A   Overcast
8:55 PM 41.0 °F 30.9 °F 35.6 °F 81% 29.49 in 10.0 mi West 24.2 mph 32.2 mph N/A   Overcast
9:15 PM 41.0 °F 31.1 °F 33.8 °F 76% 29.50 in 10.0 mi West 23.0 mph 27.6 mph N/A   Overcast
9:16 PM 41.0 °F 31.4 °F 35.6 °F 81% 29.50 in 10.0 mi West 21.9 mph 27.6 mph N/A   Overcast
9:35 PM 41.0 °F 31.1 °F 35.6 °F 81% 29.51 in 10.0 mi West 23.0 mph 28.8 mph N/A   Overcast
9:55 PM 41.0 °F 31.6 °F 33.8 °F 76% 29.52 in 10.0 mi West 20.7 mph 28.8 mph N/A   Overcast
10:15 PM 41.0 °F 31.1 °F 33.8 °F 76% 29.53 in 10.0 mi West 23.0 mph 26.5 mph N/A   Overcast
10:16 PM 41.0 °F 31.6 °F 33.8 °F 76% 29.53 in 10.0 mi West 20.7 mph 26.5 mph N/A   Overcast
10:35 PM 41.0 °F 32.2 °F 33.8 °F 76% 29.54 in 10.0 mi West 18.4 mph 28.8 mph N/A   Overcast
10:55 PM 41.0 °F 31.6 °F 33.8 °F 76% 29.55 in 10.0 mi West 20.7 mph - N/A   Light Drizzle
11:15 PM 41.0 °F 31.4 °F 33.8 °F 76% 29.55 in 10.0 mi West 21.9 mph 25.3 mph N/A   Light Drizzle
11:16 PM 41.0 °F 31.6 °F 33.8 °F 76% 29.55 in 10.0 mi West 20.7 mph 25.3 mph N/A   Overcast
11:35 PM 39.2 °F 29.6 °F 33.8 °F 81% 29.55 in 10.0 mi West 19.6 mph 29.9 mph N/A   Overcast
11:36 PM 39.2 °F 29.0 °F 33.8 °F 81% 29.55 in 10.0 mi West 21.9 mph 29.9 mph N/A   Overcast
11:55 PM 39.2 °F 29.3 °F 33.8 °F 81% 29.56 in 10.0 mi West 20.7 mph 26.5 mph N/A   Overcast